Regional Weather Roundup
Issued by NWS

Home | Current Version | Previous Version | Graphics & Text | Print | Product List | Glossary On
Versions: 1 2 3 4 5 6 7 8 9 10 11 12 13 14 15 16 17 18 19 20 21 22 23 24 25 26 27 28 29 30 31 32 33 34 35 36 37 38 39 40 41 42 43 44 45 46 47 48 49 50
000
ASUS43 KLSX 200107
RWRMO

WEATHER SUMMARY FOR MISSOURI
NATIONAL WEATHER SERVICE SPRINGFIELD MO
800 PM CDT SAT APR 19 2014

NOTE: "FAIR" INDICATES FEW OR NO CLOUDS BELOW 12,000 FEET WITH NO
       SIGNIFICANT WEATHER AND/OR OBSTRUCTIONS TO VISIBILITY.
       CURRENT SKY AND/OR WEATHER CONDITIONS ARE NOT AVAILABLE FOR
       CHILLICOTHE AND FARMINGTON.

MOZ001>031-035>038-043-044-053-054-200200-
...NORTHERN AND WESTERN MISSOURI...

CITY           SKY/WX    TMP DP  RH WIND       PRES   REMARKS
KANSAS CTY INT MOCLDY    68  44  42 S12       30.06S
KANSAS C DTWN  MOCLDY    71  43  36 S10G18    30.06R
LEE`S SUMMIT   MOCLDY    70  44  39 S9        30.08S
ST JOSEPH      PTCLDY    71  44  37 S15       30.05R
CHILLICOTHE      N/A     72  42  34 S7        30.08F
KIRKSVILLE     CLEAR     63  42  46 S9        30.12R

$$
MOZ066>068-077>081-088>096-101>105-200200-
...SOUTHWEST MISSOURI...

CITY           SKY/WX    TMP DP  RH WIND       PRES   REMARKS
SPRINGFIELD    CLEAR     67  46  47 SE7       30.11S
JOPLIN         PTCLDY    68  44  42 S7        30.09S

$$
MOZ032>034-039>042-045>050-055>058-069>072-200200-
...CENTRAL MISSOURI...

CITY           SKY/WX    TMP DP  RH WIND       PRES   REMARKS
COLUMBIA       PTCLDY    71  37  28 SE6       30.11S
JEFFERSON CITY PTCLDY    72  38  29 E6        30.10S
ROLLA          PTCLDY    67  39  35 S7        30.11S
SEDALIA        PTCLDY    71  44  37 S5        30.11R
WHITEMAN AFB   MOCLDY    67  41  38 S6        30.09S
OSAGE BEACH    CLEAR     72  37  28 S3        30.12S

$$
MOZ051-052-059>065-200200-
...EAST CENTRAL MISSOURI...

CITY           SKY/WX    TMP DP  RH WIND       PRES   REMARKS
ST LOUIS INTL  MOCLDY    70  39  32 SE12      30.16S
SPIRIT OF STL  PTCLDY    69  39  33 E6        30.14S
ST CHARLES     MOCLDY    65  43  44 E10       30.15R

$$
MOZ072>076-082>087-097>100-106>115-200200-
...SOUTH CENTRAL AND SOUTHEAST MISSOURI...

CITY           SKY/WX    TMP DP  RH WIND       PRES   REMARKS
CAPE GIRARDEAU MOCLDY    70  44  39 CALM      30.16R
FARMINGTON     PTCLDY    64  43  45 E6        30.19R
POPLAR BLUFF   PTCLDY    68  46  45 E3        30.15R
WEST PLAINS    PTCLDY    70  39  32 SE5       30.16S

$$



USA.gov is the U.S. government's official web portal to all federal, state and local government web resources and services.